Regional Weather Roundup
Issued by NWS

Home | Current Version | Previous Version | Graphics & Text | Print | Product List | Glossary On
Versions: 1 2 3 4 5 6 7 8 9 10 11 12 13 14 15 16 17 18 19 20 21 22 23 24 25 26 27 28 29 30 31 32 33 34 35 36 37 38 39 40 41 42 43 44 45 46 47 48 49 50
000
ASUS43 KDTX 200710
RWRMI
MICHIGAN HOURLY REGIONAL WEATHER ROUNDUP
NATIONAL WEATHER SERVICE DETROIT/PONTIAC MI
200 AM EST FRI JAN 20 2017

NOTE: "FAIR" INDICATES FEW OR NO CLOUDS BELOW 12,000 FEET WITH NO
SIGNIFICANT WEATHER AND/OR OBSTRUCTION TO VISIBILITY.

MIZ047>049-052>055-059>063-066>070-074>076-081>083-200800-
SOUTHEAST LOWER MICHIGAN

CITY           SKY/WX    TMP DP  RH WIND       PRES   REMARKS
ADRIAN         FOG       32  32 100 E12       29.79F VSB 1/2 WCI  23
ALMA           PTCLDY    32  32  99 E3        29.82F FOG
ANN ARBOR      FOG       33  33 100 E6        29.80F VSB 1/2 WCI  28
BAD AXE        FOG       31  31 100 SE3       29.86F VSB 1/4
CARO           CLOUDY    31  31 100 E5        29.83F FOG     WCI  26
DETROIT CITY   FOG       32  32 100 E7        29.84F VSB 1/2 WCI  26
DETROIT        FOG       34  33  96 E6        29.83F VSB 1/4 WCI  29
FLINT          CLOUDY    32  31  96 E6        29.82F FOG     WCI  26
GROSSE ILE     FOG       32  32 100 E5        29.82F VSB 3/4 WCI  27
HILLSDALE      CLOUDY    32  32 100 E9        29.74F FOG     WCI  24
HOWELL         FOG       33  32  96 SE5       29.80F VSB 3/4 WCI  28

CITY           SKY/WX    TMP DP  RH WIND       PRES   REMARKS
JACKSON        CLOUDY    35  33  92 E9        29.76F FOG     WCI  28
LAMBERTVILLE   FOG       33  32  95 E6        29.80F VSB 3/4 WCI  28
LANSING        CLOUDY    34  32  92 E6        29.79F FOG     WCI  29
LAPEER         FOG       32  32 100 SE3       29.83F VSB 1/4
MASON          CLOUDY    33  33  99 E6        29.78F FOG     WCI  28
MONROE         CLOUDY    32  32 100 E6        29.81F FOG     WCI  27
MT. CLEMENS    CLOUDY    32  32 100 E6        29.83F FOG     WCI  26
PONTIAC        FOG       32  30  92 E6        29.80F VSB 1/4 WCI  26
PORT HOPE        N/A     32  31  96 SE9       29.85F WCI  24
PORT HURON     SNOW      32  32 100 SE5       29.86F VSB 1/2 WCI  27
TRI CITIES     MOCLDY    32  32 100 E7        29.84F FOG     WCI  26
MIDLAND        FAIR      32  31  97 E3        29.83F FOG
TROY           FOG       32  31  97 E7        29.85F VSB 1/2 WCI  26
SAGINAW HB     CLOUDY    32  30  93 E5        29.83F FOG     WCI  27
$$
MIZ043>046-050>051-056>058-064>065-071>073-077>080-200800-
SOUTHWEST LOWER MICHIGAN

CITY           SKY/WX    TMP DP  RH WIND       PRES   REMARKS
BATTLE CREEK   LGT RAIN  36  35  96 E7        29.74F FOG     WCI  30
BENTON HARBOR  LGT RAIN  39  36  89 E7        29.71F FOG     WCI  34
BIG RAPIDS     PTCLDY    33  32  94 E3        29.78F FOG
COLDWATER      LGT RAIN  37  37 100 E8        29.73F WCI  31
FREMONT        CLOUDY    35  33  91 E7        29.75F WCI  29
HOLLAND        LGT RAIN  37  34  89 E5        29.74F WCI  33
GRAND RAPIDS   LGT RAIN  35  32  88 E10       29.75F FOG     WCI  27
IONIA          CLOUDY    33  32  97 E8        29.77F FOG     WCI  26
KALAMAZOO      LGT RAIN  37  34  89 E7        29.73F FOG     WCI  32
LUDINGTON      PTCLDY    35  34  96 E7        29.76F FOG     WCI  29
MARSHALL       CLOUDY    36  35  96 E6        29.74F FOG     WCI  31
MOUNT PLEASANT CLOUDY    32  32  99 E5        29.81F FOG     WCI  27
MUSKEGON       LGT RAIN  37  35  92 E3        29.76F
SOUTH HAVEN    LGT RAIN  37  37  97 E5        29.72F WCI  34
$$
MIZ016>042-200800-
NORTHERN LOWER MICHIGAN

CITY           SKY/WX    TMP DP  RH WIND       PRES   REMARKS
ALPENA         FOG       33  32  96 SE3       29.86F VSB 1/2
BEAVER ISLAND  CLOUDY    34  34  99 E5        29.82F FOG     WCI  30
BELLAIRE       PTCLDY    29  29 100 CALM      29.82F FOG
CADILLAC       CLOUDY    32  31  98 NE3       29.78F FOG
CHARLEVOIX     CLOUDY    32  32 100 SE5       29.84F FOG     WCI  27
FRANKFORT      PTCLDY    32  32 100 CALM      29.80F FOG
GAYLORD        FOG       33  29  85 S6        29.81F VSB 1/4 WCI  28
GRAYLING       FOG       32  32 100 E6        29.83F VSB 1/4 WCI  26
HARBOR SPRINGS FOG       32  32  99 E6        29.82F VSB 3/4 WCI  27
HOUGHTON LAKE  FOG       32  31  96 E6        29.81F VSB 1/4 WCI  26
MANISTEE       CLOUDY    34  33  96 E6        29.78F FOG     WCI  29
OSCODA         FOG       33  32  96 S6        29.87S VSB 1   WCI  28
PELLSTON       CLOUDY    33  31  92 SE6       29.83F FOG     WCI  28
ROGERS CITY    CLOUDY    33  32  96 SE6       29.85F FOG     WCI  28
TRAVERSE CITY  PTCLDY    33  31  92 CALM      29.81F FOG
$$
MIZ007>008-015-200800-
EASTERN UPPER MICHIGAN

CITY           SKY/WX    TMP DP  RH WIND       PRES   REMARKS
KINROSS        MIX PCPN  32  32 100 E6        29.83F VSB 1/2 WCI  26
MACKINAC ISLAN CLOUDY    33  33 100 CALM      29.83F FOG
NEWBERRY       FOG       32  32  99 S6        29.80F VSB 1/2 WCI  27
S. S. MARIE    FOG       33  32  96 E7        29.83F VSB 1/2 WCI  27
MUNISING         N/A     31  30  96 S13       29.78F WCI  21
$$
MIZ004>006-011>014-085-200800-
CENTRAL UPPER MICHIGAN

CITY           SKY/WX    TMP DP  RH WIND       PRES   REMARKS
MANISTIQUE     CLOUDY    33  33  98 SE7       29.81S FOG     WCI  27
ESCANABA       FOG       32  31  96 CALM      29.81S VSB 1/2
SAWYER-GWINN   FOG       29  29  99 S7        29.76F VSB 1/2 WCI  22
$$
MIZ001>003-009>011-084-200800-
WESTERN UPPER MICHIGAN

CITY           SKY/WX    TMP DP  RH WIND       PRES   REMARKS
IRON MOUNTAIN  FOG       30  28  92 SE3       29.76S VSB 3/4
HOUGHTON       CLOUDY    25  23  92 CALM      29.70F
COPPER HARBOR    N/A     36  33  89 W3        29.73R
IRONWOOD       CLEAR     34  30  85 SW5       29.72F WCI  30
$$

ABBREVIATIONS USED IN REMARKS
   TC - TEMPERATURE IN CELSIUS
  WCI - WIND CHILL INDEX
   HX - HEAT INDEX
  VSB - VISIBILITY





USA.gov is the U.S. government's official web portal to all federal, state and local government web resources and services.